FW2442 Weather Reports


Display with metric or nautical units.
time (UTC)temp
F
wind
direction
speed
MPH
gust
MPH
rain 1hr
in
rain 24hr
in
rain mn
in
humidity
%
barometer
mb
20260901055521 71 116 9.0 20.0 0.00 0.00 0.00 58 1014.3
20260901054521 70 118 13.0 18.0 0.00 0.00 0.00 58 1014.3
20260901053522 70 106 13.0 19.0 0.00 0.00 0.00 58 1014.3
20260901052542 70 101 13.0 20.0 0.00 0.00 0.00 57 1014.3
20260901051518 70 121 17.0 23.0 0.00 0.00 0.00 57 1014.4
20260901050517 70 117 16.0 24.0 0.00 0.00 0.00 55 1014.3
20260901045537 71 94 13.0 20.0 0.00 0.00 0.00 52 1014.2
20260901044522 71 122 12.0 20.0 0.00 0.00 0.00 53 1014.3
20260901043537 70 101 11.0 15.0 0.00 0.00 0.00 53 1014.3
20260901042521 68 98 14.0 21.0 0.00 0.00 0.00 55 1014.2
20260901041517 68 106 13.0 17.0 0.00 0.00 0.00 56 1014.2
20260901040521 67 105 13.0 20.0 0.00 0.00 0.00 56 1014.0
20260901035517 67 97 15.0 21.0 0.00 0.00 0.00 56 1014.0
20260901034518 67 110 14.0 17.0 0.00 0.00 0.00 56 1014.0
20260901033520 67 95 15.0 24.0 0.00 0.00 0.00 55 1013.8
20260901032520 66 97 8.0 13.0 0.00 0.00 0.00 56 1013.8
20260901031517 67 104 8.0 16.0 0.00 0.00 0.00 56 1013.7
20260901030522 66 120 11.0 16.0 0.00 0.00 0.00 56 1013.7
20260901025518 66 83 7.0 10.0 0.00 0.00 0.00 57 1013.8
20260901024542 67 163 4.0 7.0 0.00 0.00 0.00 55 1013.8
20260901023516 67 113 6.0 15.0 0.00 0.00 0.00 54 1013.9
20260901022519 67 107 5.0 13.0 0.00 0.00 0.00 55 1013.9
20260901021516 68 137 4.0 9.0 0.00 0.00 0.00 54 1014.0
20260901020521 69 145 7.0 12.0 0.00 0.00 0.00 51 1014.1
20260901015517 70 115 18.0 22.0 0.00 0.00 0.00 50 1014.1
20260901014542 70 108 16.0 21.0 0.00 0.00 0.00 50 1014.2
20260901013517 70 103 18.0 28.0 0.00 0.00 0.00 50 1014.3
20260901012520 70 109 17.0 26.0 0.00 0.00 0.00 50 1014.2
20260901011517 70 75 12.0 21.0 0.00 0.00 0.00 51 1014.2
20260901010520 70 102 11.0 17.0 0.00 0.00 0.00 51 1014.4
20260901005518 70 100 13.0 19.0 0.00 0.00 0.00 52 1014.4
20260901004522 70 104 13.0 22.0 0.00 0.00 0.00 52 1014.4
20260901003538 70 105 12.0 17.0 0.00 0.00 0.00 52 1014.4
20260901002521 70 109 15.0 21.0 0.00 0.00 0.00 52 1014.4
20260901001517 71 114 14.0 21.0 0.00 0.00 0.00 52 1014.4
20260901000541 71 124 11.0 15.0 0.00 0.00 0.00 52 1014.6
20260831235518 72 121 13.0 32.0 0.00 0.00 0.00 51 1014.6
20260831234520 72 121 14.0 23.0 0.00 0.00 0.00 51 1014.7
20260831233517 72 118 15.0 19.0 0.00 0.00 0.00 51 1014.7
20260831232521 73 118 14.0 23.0 0.00 0.00 0.00 51 1014.8
20260831231517 73 125 14.0 24.0 0.00 0.00 0.00 51 1014.9
20260831230517 73 126 15.0 28.0 0.00 0.00 0.00 52 1014.9
20260831225518 73 123 13.0 18.0 0.00 0.00 0.00 52 1015.0
20260831224521 73 122 14.0 28.0 0.00 0.00 0.00 52 1015.1
20260831223517 73 127 13.0 23.0 0.00 0.00 0.00 52 1015.3
20260831222522 73 124 17.0 33.0 0.00 0.00 0.00 53 1015.4
20260831221518 72 125 12.0 22.0 0.00 0.00 0.00 54 1015.4
20260831220516 72 124 12.0 19.0 0.00 0.00 0.00 54 1015.4
20260831215516 72 123 16.0 24.0 0.00 0.00 0.00 55 1015.5
20260831214523 72 119 10.0 21.0 0.00 0.00 0.00 54 1015.5
20260831213517 73 123 11.0 17.0 0.00 0.00 0.00 54 1015.5
20260831212539 73 118 13.0 21.0 0.00 0.00 0.00 53 1015.5
20260831211517 73 120 17.0 26.0 0.00 0.00 0.00 53 1015.5
20260831210541 73 132 13.0 22.0 0.00 0.00 0.00 53 1015.4
20260831205517 74 126 12.0 21.0 0.00 0.00 0.00 52 1015.4
20260831204517 74 123 12.0 25.0 0.00 0.00 0.00 52 1015.3
20260831203518 75 123 12.0 21.0 0.00 0.00 0.00 50 1015.3
20260831202519 75 121 12.0 16.0 0.00 0.00 0.00 50 1015.2
20260831201539 75 116 13.0 19.0 0.00 0.00 0.00 49 1015.1
20260831200519 75 112 11.0 20.0 0.00 0.00 0.00 48 1015.0
20260831195517 76 104 13.0 17.0 0.00 0.00 0.00 48 1014.9
20260831194519 76 109 13.0 17.0 0.00 0.00 0.00 47 1014.8
20260831193537 76 106 12.0 16.0 0.00 0.00 0.00 47 1014.8
20260831192517 76 114 11.0 14.0 0.00 0.00 0.00 47 1014.7
20260831191517 76 114 11.0 15.0 0.00 0.00 0.00 47 1014.7
20260831190522 77 108 11.0 15.0 0.00 0.00 0.00 47 1014.7
20260831185517 77 109 14.0 20.0 0.00 0.00 0.00 47 1014.8
20260831184522 77 108 13.0 17.0 0.00 0.00 0.00 47 1014.8
20260831183518 77 105 13.0 17.0 0.00 0.00 0.00 46 1014.7
20260831182558 78 108 12.0 15.0 0.00 0.00 0.00 46 1014.7
20260831181518 78 109 13.0 15.0 0.00 0.00 0.00 46 1014.7
20260831180521 78 118 11.0 16.0 0.00 0.00 0.00 46 1014.6
20260831175521 78 123 11.0 16.0 0.00 0.00 0.00 46 1014.6
20260831174522 79 119 9.0 15.0 0.00 0.00 0.00 46 1014.5
20260831173516 79 126 8.0 13.0 0.00 0.00 0.00 45 1014.4
20260831172523 80 125 9.0 11.0 0.00 0.00 0.00 45 1014.3
20260831171523 80 112 9.0 13.0 0.00 0.00 0.00 44 1014.1
20260831170522 81 117 9.0 13.0 0.00 0.00 0.00 44 1014.1
20260831165517 81 118 10.0 16.0 0.00 0.00 0.00 43 1014.1
20260831164521 82 116 9.0 15.0 0.00 0.00 0.00 42 1014.0
20260831163517 83 118 8.0 11.0 0.00 0.00 0.00 41 1013.9
20260831162541 84 132 8.0 12.0 0.00 0.00 0.00 40 1013.9
20260831161517 85 130 7.0 11.0 0.00 0.00 0.00 40 1013.9
20260831160521 86 137 8.0 13.0 0.00 0.00 0.00 39 1013.9
20260831155557 86 133 6.0 12.0 0.00 0.00 0.00 38 1014.0
20260831154521 87 129 10.0 17.0 0.00 0.00 0.00 37 1014.0
20260831153517 87 120 18.0 27.0 0.00 0.00 0.00 36 1014.1
20260831152522 88 120 17.0 29.0 0.00 0.00 0.00 36 1014.1
20260831151516 88 127 15.0 29.0 0.00 0.00 0.00 36 1014.0
20260831150521 88 126 16.0 24.0 0.00 0.00 0.00 36 1013.9
20260831145516 89 134 15.0 28.0 0.00 0.00 0.00 36 1014.0
20260831144520 89 126 14.0 30.0 0.00 0.00 0.00 36 1014.0
20260831143556 89 135 15.0 25.0 0.00 0.00 0.00 37 1014.1
20260831142519 89 115 14.0 23.0 0.00 0.00 0.00 35 1014.2
20260831141517 90 148 16.0 28.0 0.00 0.00 0.00 37 1014.2
20260831140518 90 140 13.0 19.0 0.00 0.00 0.00 36 1014.1
20260831135518 90 129 12.0 23.0 0.00 0.00 0.00 36 1014.1
20260831134522 90 118 15.0 22.0 0.00 0.00 0.00 37 1014.2
20260831133522 90 136 12.0 19.0 0.00 0.00 0.00 37 1014.4
20260831132520 90 133 15.0 26.0 0.00 0.00 0.00 37 1014.4
20260831131537 90 122 10.0 17.0 0.00 0.00 0.00 37 1014.4
20260831130541 90 123 11.0 32.0 0.00 0.00 0.00 38 1014.5
20260831125517 90 109 13.0 21.0 0.00 0.00 0.00 38 1014.5
20260831124521 90 138 12.0 28.0 0.00 0.00 0.00 38 1014.7
20260831123517 90 141 11.0 16.0 0.00 0.00 0.00 39 1014.7
20260831122522 90 116 11.0 21.0 0.00 0.00 0.00 39 1014.7
20260831121522 89 125 13.0 22.0 0.00 0.00 0.00 39 1015.0
20260831120542 89 153 13.0 28.0 0.00 0.00 0.00 40 1015.0
20260831115518 89 150 13.0 23.0 0.00 0.00 0.00 41 1015.1
20260831114518 88 115 21.0 30.0 0.00 0.00 0.00 40 1015.2
20260831113518 88 112 18.0 28.0 0.00 0.00 0.00 40 1015.2
20260831112521 89 146 14.0 21.0 0.00 0.00 0.00 41 1015.2
20260831111517 88 147 14.0 34.0 0.00 0.00 0.00 41 1015.3
20260831110541 88 148 22.0 41.0 0.00 0.00 0.00 41 1015.4
20260831105520 88 132 20.0 42.0 0.00 0.00 0.00 41 1015.5
20260831104521 88 117 16.0 30.0 0.00 0.00 0.00 41 1015.6
20260831103536 88 140 18.0 32.0 0.00 0.00 0.00 41 1015.7
20260831102522 87 135 16.0 32.0 0.00 0.00 0.00 42 1015.8
20260831101516 87 151 18.0 34.0 0.00 0.00 0.00 42 1015.9
20260831100520 86 119 19.0 34.0 0.00 0.00 0.00 42 1016.0
20260831095559 86 118 22.0 34.0 0.00 0.00 0.00 42 1016.0
20260831094520 86 115 16.0 32.0 0.00 0.00 0.00 42 1016.0
20260831093519 85 135 18.0 24.0 0.00 0.00 0.00 43 1016.1
20260831092522 85 124 23.0 31.0 0.00 0.00 0.00 43 1016.2
20260831091522 85 126 14.0 27.0 0.00 0.00 0.00 43 1016.1
20260831090520 85 155 19.0 42.0 0.00 0.00 0.00 44 1016.4
20260831085521 84 127 16.0 28.0 0.00 0.00 0.00 44 1016.5
20260831084521 84 137 20.0 30.0 0.00 0.00 0.00 44 1016.6
20260831083517 84 145 16.0 27.0 0.00 0.00 0.00 45 1016.7
20260831082521 83 127 17.0 31.0 0.00 0.00 0.00 45 1016.7
20260831081538 82 154 17.0 26.0 0.00 0.00 0.00 46 1016.8
20260831080558 82 159 16.0 28.0 0.00 0.00 0.00 47 1016.8
20260831075517 81 108 16.0 27.0 0.00 0.00 0.00 49 1016.8
20260831074522 80 126 16.0 28.0 0.00 0.00 0.00 50 1016.8
20260831073522 79 115 12.0 20.0 0.00 0.00 0.00 51 1016.8
20260831072542 79 113 12.0 21.0 0.00 0.00 0.00 51 1016.9
20260831071522 78 117 17.0 26.0 0.00 0.00 0.00 51 1016.9
20260831070521 78 121 17.0 33.0 0.00 0.00 0.00 51 1016.8
20260831065521 77 111 16.0 26.0 0.00 0.00 0.00 53 1016.8
20260831064518 76 120 15.0 22.0 0.00 0.00 0.00 54 1016.8
20260831063517 76 112 13.0 24.0 0.00 0.00 0.00 55 1016.9
20260831062539 75 117 16.0 31.0 0.00 0.00 0.00 55 1016.9
20260831061520 75 118 11.0 19.0 0.00 0.00 0.00 57 1016.9
20260831060542 74 121 11.0 26.0 0.00 0.00 0.00 59 1017.0